sat.trackr.live / text

‹ back to catalog

BEIDOU-2 IGSO-7 (C16)

NORAD 43539 · 2018-057A

PAYLOAD ACTIVE UNKNOWN

§ Identity

Operator
Country
PRC
Launch date
2018-07-09
Launch site
XICLF
Launch vehicle
Mass (kg)
RCS (m²)

Purposes: comms, nav

External: N2YO · Heavens-Above · Gunter

§ Orbital elements

Epoch: 2026-09-19T16:10:16.851360Z

Period
1,436.04 min
Inclination
55.2127°
Eccentricity
0.0107678
Mean motion
1.00275683 rev/d
Perigee alt
35,331.5 km
Apogee alt
36,239.5 km
Semi-major
42,163.6 km
B*
0.0000e+0
RAAN
162.2531°
Arg perigee
236.4201°
Mean anomaly
315.0789°
Rev number
3,007

§ Raw data

BEIDOU-2 IGSO-7 (C16)1 43539U 18057A   26262.67380615 -.00000165  00000+0  00000+0 0  99902 43539  55.2127 162.2531 0107678 236.4201 315.0789  1.00275683 30070

JSON: /api/v1/satellites/43539 · /tle

For live sub-satellite position, see the globe view (requires WebGL).

§ Visibility from observer

Set your observer location to see the next 7 days of passes ≥ 10°. The values pass through the URL so the page stays shareable.

No JS? Fill the form by hand. The geolocation button needs JavaScript.